軌道要素
Epoch 2013 Mar. 9.0 TT = JDT 2456360.5
T 2013 Mar. 17.40567 TT MPC
q 2.6899316 (2000.0) P Q
n 0.09899144 Peri. 124.12026 -0.80868360 +0.36826488
a 4.6281167 Node 81.44586 -0.56158539 -0.71541472
e 0.4187848 Incl. 27.63691 +0.17507906 -0.59376995
P 9.96
From 139 observations 2003 Jan. 27-2013 June 12, mean residual 0".7.
|